7 * 24
多渠道服务支持
STARLINK-37088(NORAD编号68322)是美国SpaceX公司星链(Starlink)低轨互联网星座中的一颗卫星,属于第二代星链组网卫星,运行在近地轨道。该卫星配备Ku/Ka频段相控阵天线、氩气离子推进系统与空间激光链路,可实现星间高速通信,能灵活完成轨道机动,寿命结束后可主动脱轨减少太空垃圾,依托低轨部署为全球用户提供低时延、高带宽的卫星互联网接入服务,同时也具备潜在的军事应用潜力,是星链全球覆盖组网的重要组成部分。
美国
(US)
| 数据来源 | 国际轨道数据 |
| 星历时间: | 2026-06-09T22:44:48+0800 21小时前 查看轨道信息 |
| 半长轴: | 6840.82km |
| 偏心率: | 0.000114 |
| 轨道倾角: | 53.159° |
| 近地点辐角 | 94.170° |
| 升交点赤经 | 276.734° |
| 平近点角 | 265.944° |
| 近地点: | 461.903km |
| 远地点: | 463.463km |
| 周期: | 93.847分钟 |
| 每日圈数: | 15.34407 |